Regional Weather Roundup
Issued by NWS

Home | Current Version | Previous Version | Graphics & Text | Print | Product List | Glossary Off
Versions: 1 2 3 4 5 6 7 8 9 10 11 12 13 14 15 16 17 18 19 20 21 22 23 24 25 26 27 28 29 30 31 32 33 34 35 36 37 38 39 40 41 42 43 44 45 46 47 48 49 50

000
ASUS43 KMPX 260310
RWRMN
WEATHER ROUNDUP FOR MINNESOTA
NATIONAL WEATHER SERVICE TWIN CITIES/CHANHASSEN MN
1000 PM CDT SAT APR 25 2015


NOTE: "FAIR" INDICATES FEW OR NO CLOUDS BELOW 12,000 FEET WITH NO
SIGNIFICANT WEATHER AND/OR OBSTRUCTIONS TO VISIBILITY. N/A MEANS
CURRENT SKY AND/OR WEATHER CONDITIONS ARE NOT AVAILABLE.

MNZ060>063-068>070-260400-
   Twin Cities Metro

CITY           SKY/WX    TMP DP  RH WIND       PRES   REMARKS
TWIN CITIES    CLEAR     53  30  41 N13       29.93R
ST PAUL        CLEAR     53  29  39 N10       29.94R
CRYSTAL        FAIR      52  29  41 N9        29.94R
BLAINE         CLEAR     50  30  46 N9        29.95R
LAKEVILLE      CLEAR     37  30  75 W3        29.92R
EDEN PRAIRIE   CLEAR     52  30  43 N7        29.92R
SOUTH ST PAUL  CLEAR     53  29  40 N5        29.93R
LAKE ELMO      FAIR      50  32  50 NE6       29.95R
$$
MNZ001>005-007-008-013>017-022>024-027-028-260400-
   Northwest Minnesota

CITY           SKY/WX    TMP DP  RH WIND       PRES   REMARKS
BEMIDJI        CLEAR     41  29  61 CALM      29.99R
HALLOCK        CLEAR     52  30  43 E12       29.97R
ROSEAU         CLEAR     46  32  57 E9        30.01R
WARROAD        CLEAR     43  34  70 E10       30.02R
THIEF RVR FALL CLEAR     52  28  40 E7        29.99R
CROOKSTON      CLEAR     52  32  46 SE9       29.98R
FOSSTON        CLEAR     45  28  53 SE5       29.99R
DETROIT LAKES  FAIR      50  28  43 SE3       29.99R
MOORHEAD       CLEAR     50  30  46 E5        29.97R
PARK RAPIDS    CLEAR     49  28  44 E5        29.98R
MAHNOMEN       FAIR      44  29  56 E8        29.98R
$$
MNZ006-009>011-018-025>026-260400-
   North Central Minnesota

CITY           SKY/WX    TMP DP  RH WIND       PRES   REMARKS
BAUDETTE       CLEAR     47  28  47 CALM      30.01R
FLAG ISLAND    CLEAR     50  28  43 E7        30.01S
INTL FALLS     CLEAR     46  24  42 NE5       30.01R
WASKISH        CLEAR     46  30  53 CALM      30.00R
BIG FORK       CLEAR     46  21  36 E5        30.01R
LONGVILLE      CLEAR     39  28  65 SE3       30.00R
GRAND RAPIDS   CLEAR     45  12  26 SE7       30.02R
CRANE LAKE     CLEAR     30  25  80 CALM      30.04S
ORR            CLEAR     39  21  48 CALM      29.99S
COOK           CLEAR     41  18  38 SE5       30.02R
WALKER         FAIR      43  30  59 CALM      29.99R
$$
MNZ012-019>021-037-260400-
   Northeast Minnesota

CITY           SKY/WX    TMP DP  RH WIND       PRES   REMARKS
DULUTH         CLEAR     35  16  45 E9        30.03R WCI  28
ELY            CLEAR     36  16  44 CALM      30.04R
HIBBING        CLEAR     38  11  32 SE3       30.03R
EVELETH        CLEAR     36  14  41 E3        30.05R
DULUTH HARBOR  CLEAR     37  28  70 NE15      30.06R
TWO HARBORS    CLEAR     36  19  51 N5        30.03R
SILVER BAY     CLEAR     30  18  59 CALM      30.03S
GRAND MARAIS     N/A     30  21  69 CALM      30.06S
G MARAIS ARPRT CLEAR     30  16  55 N5        30.03S WCI  25
$$
MNZ029>031-032-039>041-046>048-054>057-064-260400-
   West Central Minnesota

CITY           SKY/WX    TMP DP  RH WIND       PRES   REMARKS
FERGUS FALLS   CLEAR     48  30  49 E5        29.98R
WHEATON        PTCLDY    43  37  81 E3        29.98R
MORRIS         CLEAR     46  39  76 E6        29.95R
ALEXANDRIA     CLEAR     47  32  56 E9        29.98R
ELBOW LAKE     FAIR      47  39  74 E5        29.96R
WADENA         CLEAR     46  28  49 E5        29.98R
GLENWOOD       CLEAR     45  36  70 NE9       29.97R
APPLETON       CLEAR     46  39  76 NE5       29.94R
BENSON         CLEAR     45  37  76 E2        29.95S
ORTONVILLE     CLEAR     48  39  71 NE5       29.94R
MADISON        MOCLDY    46  37  71 E7        29.94R
WILLMAR        FAIR      46  34  61 E8        29.96R
$$
MNZ033>034-036-042>043-049>051-058-059-260400-
   Central Minnesota

CITY           SKY/WX    TMP DP  RH WIND       PRES   REMARKS
ST CLOUD       CLEAR     46  27  47 NE9       29.97R
SAUK CENTRE    FAIR      46  31  56 NE10      29.97R
PAYNESVILLE    CLEAR     44  32  64 N7        29.96R
AITKIN         CLEAR     41   1  19 E5        30.00R
PINE RIVER     CLEAR     45  28  53 E7        30.03R
BRAINERD       CLEAR     45   6  20 E7        30.00R
STAPLES        CLEAR     46  28  49 CALM      29.99R
LONG PRAIRIE   FAIR      45  30  57 NE9       29.98R
LITTLE FALLS   CLEAR     45  27  49 NE5       29.98R
LITCHFIELD     CLEAR     48  36  61 NE6       29.96R
BUFFALO        CLEAR     48  29  48 NE12G17   29.96R
MAPLE LAKE     CLEAR     48  33  57 NE6       29.97R
$$
MNZ037-044-045-052-053-260400-
   East Central Minnesota

CITY           SKY/WX    TMP DP  RH WIND       PRES   REMARKS
PRINCETON      CLEAR     45  25  45 N8        29.98R
MORA           CLEAR     37  12  35 NE7       30.01R
CAMBRIDGE      CLEAR     46  28  49 N5        29.96R
RUSH CITY      PTCLDY    42  21  44 NE9G16    29.99R
MOOSE LAKE     CLEAR     36  16  44 CALM      30.01R
HINCKLEY       FAIR      37  18  44 NE9       30.00R
CLOQUET        CLEAR     36  14  41 E6        30.03R
MCGREGOR       CLEAR     37  12  35 E3        30.02R
$$
MNZ071>073-080-081-089-090-097-098-260400-
   Southwest Minnesota

CITY           SKY/WX    TMP DP  RH WIND       PRES   REMARKS
MONTEVIDEO     CLEAR     45  37  76 E6        29.95R
GRANITE FALLS  PTCLDY    51  36  56 CALM      29.95R
CANBY          CLOUDY    51  43  74 CALM      29.94R
MARSHALL       CLOUDY    52  36  54 S6        29.93R
REDWOOD FALLS  PTCLDY    50  37  61 S6        29.93R
OLIVIA         CLEAR     46  30  53 CALM      29.93R
PIPESTONE      MOCLDY    48  39  71 SE5       29.92R
WINDOM         PTCLDY    43  34  70 CALM      29.94R
WORTHINGTON    PTCLDY    45  36  70 E5        29.93S
JACKSON        PTCLDY    45  36  70 E3        29.94R
TRACY          PTCLDY    48  37  66 S5        29.94R
SLAYTON        PTCLDY    44  37  75 CALM      29.94R
$$
MNZ065>067-074>077-082>085-091>093-260400-
   South Central Minnesota

CITY           SKY/WX    TMP DP  RH WIND       PRES   REMARKS
MANKATO        CLEAR     50  36  57 CALM      29.93R
NEW ULM        CLEAR     46  36  66 S3        29.93R
ST JAMES       CLEAR     45  36  70 CALM      29.95R
FAIRMONT       CLEAR     45  34  65 CALM      29.92S
GLENCOE        CLEAR     52  34  50 NE7       29.94R
FARIBAULT      CLEAR     39  32  75 CALM      29.93R
OWATONNA       CLEAR     39  34  81 CALM      29.92R
WASECA         CLEAR     43  36  75 CALM      29.94R
ALBERT LEA     CLEAR     43  37  81 N3        29.91R
$$
MNZ078>079-086>088-094>096-260400-
   Southeast Minnesota

CITY           SKY/WX    TMP DP  RH WIND       PRES   REMARKS
ROCHESTER      CLEAR     48  27  44 E5        29.92R
RED WING       CLEAR     43  28  56 CALM      29.91R
STANTON        CLEAR     42  29  61 SW3       29.91R
DODGE CENTER   PTCLDY    46  34  61 N3        29.91R
WINONA         CLEAR     43  32  65 CALM      29.92R
AUSTIN         CLEAR     43  37  81 CALM      29.91R
PRESTON        PTCLDY    46  31  55 CALM      29.91R
$$
ABBREVIATIONS USED IN REMARKS
   TC - TEMPERATURES IN CELSIUS
  WCI - WIND CHILL INDEX
   HX - HEAT INDEX
  VSB - VISIBILITY
$$


USA.gov is the U.S. government's official web portal to all federal, state and local government web resources and services.